ONEWEB-0022, 45135

Orbit data source: Space-Track

ONEWEB-0022, 45135 is a payload satellite owned by One Web (UK) in LEO that was launched on Thu, 06 Feb 2020 UTC via a SOYUZ-2-1B launch vehicle from the Tyuratam Missile And Space Complex (TTMTR). Payload-class satellites include a variety of spacecraft equipped with specific instruments for various scientific and technological missions. These include communications satellites like Starlink; space stations such as the ISS; scientific satellites like the Hubble; Earth observation satellites from companies like Planet Labs, Umbra, and HawkEye 360; GPS; miniature CubeSats for education and research; and military/defense satellites.

Loading next visibility...
Identifier
45135, 2020-008E
Orbit
LEO
Last TLE update
14 hours ago
Origin
Manufacturer
One Web
Mission
Non-operational Commercial Communications
Bus & Motor
ARROW, Unknown motor
Mass
148 kg wet, ~140 kg dry
Launch date (UTC)
2020-02-06 (5 years ago)
Launch vehicle
SOYUZ-2-1B
Launch site
Tyuratam Missile And Space Complex (TTMTR)
Object type
Payload
Rocket body
Debris
Shape & HBR
Trap Box + 2 Pan, 5 m
Radar Cross Section
2.957 m², Large (>1 m²)

Expand to show TLE details & history

TLE from 14 hours ago
0 ONEWEB-0022
1 45135U 20008E   25181.81761940 -.00000605  00000-0 -17687-2 0  9995
2 45135  87.8832 106.3761 0002177  74.3262 285.8105 13.10459229262332
Epoch: 2025-06-30T19:37Z
TLE epoch observation values (Epoch: 2025-06-30T19:37:22.316Z)
Latitude
-0.00005°
Longitude
-107.08886°
Altitude
1,223.82 km
Speed
7.243 km/s
True Right ascension
07h 05m 30s
True Declination
0° 00' 00"
Sunlit
Object was in daylight at epoch
Visualization orbit readout
Latitude
-68.78099°
Longitude
78.22952°
Altitude
1,248.951 km
Speed
7.229 km/s
Apparent Right ascension
11h 14m 09s
Apparent Declination
-75° 53' 60"
Sunlit
Object is in full shadow
Visualization observer readout
Local Sidereal Time
21:21:15
Azimuth
190.762° SSW
Elevation
-51.903°
Doppler factor
1
Orbital elements
Apogee altitude
1,220.157 km
Perigee altitude
1,216.849 km
Semi-major axis
7,596.64 km
Eccentricity
0.00022
Inclination
87.8832°
RAAN
106.3761°
Arg. of periapsis
74.3262°
True anomaly
Unknown
Mean anomaly
285.8105°
Eccentric anomaly
Unknown
Mean motion
3.27801 °/min
Orbital period
109.82 mins
BSTAR
-0.0017687
Loading maneuver chart data...
Loading SW <> Apogee altitude chart data...
Loading historical data...
Loading historical data...
Loading historical data...
Loading historical data...
Loading historical data...
Loading historical data...
Loading historical data...

ONEWEB-0022 Visibility forecast

Observer location: undefined°, undefined°

Span
Click to sort rows by Start time (UTC) header in descending order
Start Az.
Max El. time (UTC)
Max El. Az.
Max El.
End time (UTC)
End Az.
8 mins2025-07-01 17:45:55.615Z106.607° ESE2025-07-01 17:49:55.615Z71.704° E16.477°2025-07-01 17:53:55.615Z37.303° NE
13 mins2025-07-01 19:32:55.615Z183.526° SSW2025-07-01 19:38:55.615Z280.524° WNW44.685°2025-07-01 19:45:55.615Z358.684° N
5 mins2025-07-01 21:27:55.615Z272.274° WNW2025-07-01 21:29:55.615Z289.232° WNW12.716°2025-07-01 21:32:55.615Z314.06° NW
5 mins2025-07-02 05:15:55.615Z52.864° ENE2025-07-02 05:17:55.615Z69.886° E12.911°2025-07-02 05:20:55.615Z94.878° ESE
13 mins2025-07-02 07:02:55.615Z1.749° NNE2025-07-02 07:08:55.615Z64.288° ENE44.701°2025-07-02 07:15:55.615Z177.583° S
7 mins2025-07-02 08:54:55.615Z316.086° NNW2025-07-02 08:57:55.615Z289.276° WNW16.279°2025-07-02 09:01:55.615Z254.315° W
|